Regional Weather Roundup
Issued by NWS

Home | Current Version | Previous Version | Text Only | Print | Product List | Glossary On
Versions: 1 2 3 4 5 6 7 8 9 10 11 12 13 14 15 16 17 18 19 20 21 22 23 24 25 26 27 28 29 30 31 32 33 34 35 36 37 38 39 40 41 42 43 44 45 46 47 48 49 50
000
ASUS43 KDTX 302210
RWRMI
MICHIGAN HOURLY REGIONAL WEATHER ROUNDUP
NATIONAL WEATHER SERVICE DETROIT/PONTIAC MI
600 PM EDT SUN AUG 30 2015

NOTE: "FAIR" INDICATES FEW OR NO CLOUDS BELOW 12,000 FEET WITH NO
SIGNIFICANT WEATHER AND/OR OBSTRUCTION TO VISIBILITY.

MIZ047>049-052>055-059>063-066>070-074>076-081>083-302300-
SOUTHEAST LOWER MICHIGAN

CITY           SKY/WX    TMP DP  RH WIND       PRES   REMARKS
ADRIAN         SUNNY     83  65  54 W8        30.02F
ALMA           MOSUNNY   76  68  75 SW3       30.02F
ANN ARBOR      SUNNY     82  68  62 NW8       30.01F
BAD AXE        MOSUNNY   75  67  75 NW3       30.01F
CARO           MOSUNNY   77  69  75 W5        30.00F
DETROIT CITY   PTSUNNY   79  67  66 S5        30.00S
DETROIT        TSTM      77  71  82 NW12      30.02R
FLINT          PTSUNNY   81  68  64 W7        30.01F
GROSSE ILE     MOSUNNY   75  70  83 S5        30.00S
HILLSDALE      PTSUNNY   79  72  78 NW8       30.04S
HOWELL         PTSUNNY   80  66  63 W7        30.02F

CITY           SKY/WX    TMP DP  RH WIND       PRES   REMARKS
JACKSON        MOSUNNY   78  69  73 W8        30.03S
LAMBERTVILLE   MOSUNNY   84  67  57 W6        30.01F
LANSING        PTSUNNY   79  66  64 SW9       30.03F
LAPEER         PTSUNNY   79  67  66 NW7       30.02S
MASON          PTSUNNY   78  65  64 W5        30.03S
MONROE         CLOUDY    80  70  72 SE3       30.00F
MT. CLEMENS    PTSUNNY   78  69  75 S8        29.99S
PONTIAC        MOSUNNY   80  67  64 W9        30.01S
PORT HOPE        N/A     72  67  84 N3        30.00F
PORT HURON     MOSUNNY   81  68  65 S3        30.00F
TRI CITIES     SUNNY     78  67  68 SW6       30.01F
MIDLAND        FAIR      78  66  65 SW6       30.00S
TROY           MOSUNNY   84  67  55 SW5       30.02S
SAGINAW HB     PTSUNNY   77  68  73 SW3       30.00F
$$
MIZ043>046-050>051-056>058-064>065-071>073-077>080-302300-
SOUTHWEST LOWER MICHIGAN

CITY           SKY/WX    TMP DP  RH WIND       PRES   REMARKS
BATTLE CREEK   MOSUNNY   77  67  71 W8        30.04S
BENTON HARBOR  SUNNY     73  66  78 VRB3      30.04S
BIG RAPIDS     MOSUNNY   74  66  75 S3        30.02F
COLDWATER      MOSUNNY   77  69  76 NW6       30.04S HAZE
FREMONT        CLOUDY    75  68  79 SW3       30.02F HAZE
HOLLAND        CLOUDY    73  66  78 W8        30.04F
GRAND RAPIDS   MOSUNNY   77  66  68 W12       30.03S
IONIA          FAIR      78  66  66 W8        30.02S
KALAMAZOO      PTSUNNY   77  66  68 NW5       30.04S
LUDINGTON      SUNNY     71  64  80 W8        30.03F
MARSHALL       CLOUDY    77  68  75 SW6       30.03S
MOUNT PLEASANT PTSUNNY   78  67  67 W6        30.01S
MUSKEGON       PTSUNNY   74  63  68 NW6       30.03S
SOUTH HAVEN    PTSUNNY   73  65  75 W6        30.04S
$$
MIZ016>042-302300-
NORTHERN LOWER MICHIGAN

CITY           SKY/WX    TMP DP  RH WIND       PRES   REMARKS
ALPENA         PTSUNNY   80  62  54 VRB5      29.98F
BEAVER ISLAND  SUNNY     69  62  77 SW9       29.99F
BELLAIRE       SUNNY     76  62  62 W5        29.99F
CADILLAC       SUNNY     76  64  65 SW7       30.02F
CHARLEVOIX     SUNNY     71  64  78 W10       30.02F
FRANKFORT      SUNNY     68  63  84 SW8       30.02S
GAYLORD        SUNNY     76  61  59 W10       30.01F
GRAYLING       MOSUNNY   76  62  61 SW5       30.01F
HARBOR SPRINGS SUNNY     71  64  76 W5        29.99F
HOUGHTON LAKE  MOSUNNY   76  63  64 SW6       30.02F
MANISTEE       SUNNY     70  61  73 W8        30.03S
OSCODA         SUNNY     76  64  67 S9        29.98F
PELLSTON       SUNNY     74  63  68 W7        29.99F
ROGERS CITY    MOSUNNY   73  63  71 N3        29.99S
TRAVERSE CITY  MOSUNNY   77  63  61 SW7       29.98F
$$
MIZ007>008-015-302300-
EASTERN UPPER MICHIGAN

CITY           SKY/WX    TMP DP  RH WIND       PRES   REMARKS
KINROSS        MOSUNNY   72  61  68 SW10G17   29.97S
MACKINAC ISLAN SUNNY     69  60  73 W10       29.98F
NEWBERRY       MOSUNNY   70  61  71 SW16      29.96S
S. S. MARIE    MOSUNNY   73  61  65 SW13      29.95F
MUNISING         N/A     80  63  55 S10G23    29.90F
$$
MIZ004>006-011>014-085-302300-
CENTRAL UPPER MICHIGAN

CITY           SKY/WX    TMP DP  RH WIND       PRES   REMARKS
MANISTIQUE     MOSUNNY   66  62  86 S13       29.96F
ESCANABA       MOSUNNY   68  61  77 S16G22    29.94S
MENOMINEE      SUNNY     75  63  64 SW10      29.96F
SAWYER-GWINN   SUNNY     81  63  54 S16G22    29.92F
$$
MIZ001>003-009>011-084-302300-
WESTERN UPPER MICHIGAN

CITY           SKY/WX    TMP DP  RH WIND       PRES   REMARKS
IRON MOUNTAIN  SUNNY     79  60  52 SW10G20   29.94F
HOUGHTON       SUNNY     82  61  48 SW12      29.87S
IRONWOOD       SUNNY     81  64  57 SW9       29.88S
$$

ABBREVIATIONS USED IN REMARKS
   TC - TEMPERATURE IN CELSIUS
  WCI - WIND CHILL INDEX
   HX - HEAT INDEX
  VSB - VISIBILITY



USA.gov is the U.S. government's official web portal to all federal, state and local government web resources and services.